Flag for Colombia Weather past 2 weeks in Santa Marta, Colombia

Now
77 °F

Passing clouds.


Feels Like: 78 °F
Forecast: 82 / 87 °F
Wind: 6 mph from West

Location: Barranquilla / Ernestocortissoz

Current Time: Sep 15, 2014 at 12:13:09 AM

Latest Report: Sep 15, 2014 at 12:00 AM


Visibility: N/A

Pressure: 29.92 "Hg

Humidity: 100%

Dew point: 77 °F

Location of Santa MartaLocation

Historic Weather in Santa Marta — Graph

°F

Santa Marta temperature yesterday

Maximum temperature yesterday: 93 °F (at 12:00 PM)
Minimum temperature yesterday: 75 °F (at 2:00 PM)
Average temperature yesterday: 81 °F

Past Weeks' High & Low Weather Summary

 TemperatureHumidityPressure
High95 °F (Aug 31, 12:00 PM)100% (Sep 3, 1:00 AM)29.94 "Hg (Sep 3, 1:00 AM)
Low75 °F (Sep 3, 2:00 PM)56% (Aug 31, 12:00 PM)29.72 "Hg (Sep 7, 4:00 PM)
Average83 °F86%29.81 "Hg
* Reported Aug 30 11:00 PM — Sep 14 11:00 PM, Santa Marta, Weather by CustomWeather, © 2014

Note: Actual official high and low records may vary slightly from our data, if they occured in-between our weather recording intervals... More about our weather records

Advertising

Santa Marta weather history for previous 24 hours

 ConditionsComfort  
Time TempWeatherWind HumidityBarometerVisibility
11:00 PM
Sep 14
77 °FPassing clouds.7 mph100%29.94 "HgN/A
10:00 PM79 °FPassing clouds.9 mph100%29.93 "HgN/A
9:00 PM79 °FPartly cloudy.9 mph100%29.90 "HgN/A
8:00 PM79 °FPartly cloudy.3 mph100%29.89 "HgN/A
7:00 PM79 °FThunderstorms. Partly cloudy.6 mph100%29.85 "HgN/A
6:00 PM79 °FPartly cloudy.7 mph100%29.84 "HgN/A
5:00 PM79 °FBroken clouds.5 mph100%29.85 "HgN/A
4:00 PM79 °FBroken clouds.5 mph94%29.84 "HgN/A
3:00 PM77 °FScattered clouds.7 mph100%29.83 "HgN/A
2:00 PM75 °FDrizzle. Partly sunny.16 mph94%29.84 "Hg3 mi
1:04 PM82 °FDrizzle. Partly sunny.12 mph89%29.85 "Hg4 mi
1:00 PM84 °FScattered showers. Partly sunny.13 mph84%29.85 "Hg4 mi
12:00 PM93 °FPartly sunny.3 mph67%29.85 "HgN/A
11:00 AM91 °FPartly sunny.7 mph67%29.87 "HgN/A
10:00 AM88 °FWarm.7 mph75%29.88 "HgN/A
9:00 AM86 °FScattered clouds.3 mph84%29.87 "HgN/A
8:00 AM82 °FFog.No wind94%29.88 "Hg5 mi
7:00 AM79 °FFog.5 mph100%29.85 "Hg2 mi
6:00 AM77 °FFog.5 mph100%29.82 "Hg2 mi
5:00 AM79 °FPartly cloudy.7 mph94%29.81 "Hg5 mi
4:00 AM79 °FPartly cloudy.No wind100%29.79 "HgN/A
3:00 AM81 °FPassing clouds.No wind89%29.79 "HgN/A
2:00 AM81 °FPassing clouds.No wind89%29.80 "HgN/A
1:00 AM81 °FPassing clouds.5 mph94%29.80 "HgN/A
12:00 AM82 °FPassing clouds.5 mph89%29.81 "HgN/A
Weather by CustomWeather, © 2014

See weather overviewHow to use our weather pages